Location: Stoke Bliss
(52.2667°N, 2.5167°W)
Time: 21:19:28
(UTC+00:00)

PSLV R/B - Pass Details

Date: 03 March 2021
Orbit: 567 x 598 km, 98.2° (Epoch: 15 April)

Event Time Altitude Azimuth Distance (km) Brightness Sun altitude
Rises 18:32:34 0° 19° (NNE) 2,814 7.2 -6.8°
Reaches altitude 10° 18:34:51 10° 27° (NNE) 1,904 6.3 -7.1°
Maximum altitude 18:38:46 42° 99° (E) 832 4.3 -7.7°
Drops below altitude 10° 18:42:37 10° 171° (S) 1,873 6.4 -8.3°
Sets 18:44:50 0° 178° (S) 2,762 7.4 -8.7°
